Flag for Canada Weather past 2 weeks in Rankin Inlet, Nunavut Territory, Canada

Now
43 °F

Passing clouds.


Feels Like: 35 °F
Forecast: 40 / 52 °F
Wind: 15 mph from East

Location: Rankin Inlet

Current Time: Sep 1, 2014 at 11:48:23 PM

Latest Report: Sep 1, 2014 at 11:00 PM


Visibility: 15 mi

Pressure: 29.75 "Hg

Humidity: 87%

Dew point: 39 °F

Location of Rankin InletLocation

Historic Weather in Rankin Inlet — Graph

°F

Rankin Inlet temperature yesterday

Maximum temperature yesterday: 50 °F (at 3:00 PM)
Minimum temperature yesterday: 39 °F (at 3:00 AM)
Average temperature yesterday: 44 °F

Past Weeks' High & Low Weather Summary

 TemperatureHumidityPressure
High61 °F (Aug 25, 2:00 PM)100% (Aug 17, 10:00 PM)30.47 "Hg (Aug 17, 10:00 PM)
Low39 °F (Aug 31, 3:00 AM)51% (Aug 24, 3:00 PM)29.29 "Hg (Aug 18, 12:00 AM)
Average46 °F82%29.87 "Hg
* Reported Aug 17 10:00 PM — Sep 1 10:00 PM, Rankin Inlet, Weather by CustomWeather, © 2014

Note: Actual official high and low records may vary slightly from our data, if they occured in-between our weather recording intervals... More about our weather records

Advertising

Rankin Inlet weather history for previous 24 hours

 ConditionsComfort  
Time TempWeatherWind HumidityBarometerVisibility
10:00 PM
Sep 1
43 °FPassing clouds.13 mph87%29.75 "Hg15 mi
9:00 PM45 °FPassing clouds.14 mph81%29.76 "Hg15 mi
8:00 PM45 °FPartly sunny.15 mph81%29.77 "Hg15 mi
7:00 PM46 °FPartly sunny.15 mph76%29.78 "Hg15 mi
6:00 PM46 °FMostly cloudy.15 mph76%29.77 "Hg15 mi
5:00 PM46 °FMostly cloudy.14 mph76%29.78 "Hg15 mi
4:00 PM46 °FPartly sunny.13 mph82%29.78 "Hg15 mi
3:00 PM48 °FPartly sunny.16 mph71%29.78 "Hg15 mi
2:00 PM48 °FPartly sunny.14 mph76%29.78 "Hg15 mi
1:00 PM46 °FPartly sunny.16 mph82%29.79 "Hg15 mi
12:00 PM45 °FMore clouds than sun.16 mph81%29.80 "Hg15 mi
11:00 AM45 °FMostly cloudy.13 mph81%29.80 "Hg15 mi
10:00 AM45 °FMostly cloudy.13 mph87%29.81 "Hg15 mi
9:00 AM43 °FMostly cloudy.12 mph93%29.82 "Hg15 mi
8:00 AM43 °FOvercast.9 mph87%29.83 "Hg15 mi
7:48 AM43 °FOvercast.9 mph87%29.83 "Hg15 mi
7:00 AM43 °FLow clouds.9 mph87%29.83 "Hg15 mi
6:00 AM43 °FLow clouds.12 mph87%29.84 "Hg15 mi
5:00 AM41 °FLow clouds.10 mph93%29.83 "Hg15 mi
4:00 AM43 °FLow clouds.8 mph87%29.83 "Hg15 mi
3:00 AM43 °FLow clouds.9 mph87%29.83 "Hg15 mi
2:00 AM43 °FOvercast.7 mph87%29.84 "Hg15 mi
1:00 AM43 °FPassing clouds.8 mph93%29.84 "Hg15 mi
12:00 AM43 °FPassing clouds.8 mph87%29.85 "Hg15 mi
11:00 PM
Aug 31
43 °FPassing clouds.7 mph87%29.85 "Hg15 mi
Weather by CustomWeather, © 2014

See weather overviewHow to use our weather pages